Location: Austin
(30.3000°N, 97.7500°W)
Time: 11:58:52
(UTC-05:00)

Cosmos 44 - Pass Details

Date: 26 May 2023
Orbit: 577 x 782 km, 65.1° (Epoch: 30 May)

Event Time Altitude Azimuth Distance (km) Brightness Sun altitude
Rises 21:02:57 0° 340° (NNW) 3,218 7.6 -8.1°
Reaches altitude 10° 21:05:26 10° 347° (NNW) 2,309 6.7 -8.6°
Maximum altitude 21:10:33 46° 60° (ENE) 1,045 4.0 -9.5°
Enters shadow 21:15:07 13° 130° (SE) 2,120 5.1 -10.3°
